Jump to main content.


Dockets by Year Filed: 2011

(1601 entries in this collection) Click for full-text searchSearch these

[prev] 1 2 3 4 5 6 7 8 9 10 11 12 13 14 15 16 17 [next]


12/01/2011CAA(112r)-09-2011-0015Marchem Technologies LLCClosed
12/01/2011RCRA-09-2011-0006AZZ Galvanizing Services - ArizonaClosed
12/01/2011FIFRA-09-2011-0009Severn Trent Water Purification, Inc.Closed
12/01/2011CAA(112r)-09-2011-0008Uni-Kool Partners, Inc.Closed
12/01/2011CAA(112r)-09-2011-0011Hasa, Inc. (Eloy, AZ Facility)Closed
12/01/2011RCRA-09-2011-0016Chemical Waste Management, Inc.Closed
12/01/2011FIFRA-09-2011-0008Ladybugs Inc Pest ControlClosed
12/01/2011TSCA-09-2011-0009Nevada Connections AcademyClosed
12/01/2011TSCA-09-2011-0001Chemical Waste ManagementClosed
12/01/2011CAA(112r)-09-2011-0005Lunday-Thagard CompanyClosed
12/01/2011RCRA-09-2011-0002The Bumper Shop, Inc.Closed
12/01/2011CAA(112r)-09-2011-0012Safeway, Inc.Closed
12/01/2011RCRA-09-2011-0004Acme Aerospace, Inc.Closed
12/01/2011FIFRA-09-2011-0014MCV Manufacturing, Inc.Closed
12/01/2011CAA(112r)-09-2011-0023Arctic Glacier Vernon, Inc.Closed
12/01/2011FIFRA-09-2011-0010Bye Bye BirdieClosed
12/01/2011FIFRA-09-2011-0007Ozotech, Inc.Closed
12/01/2011RCRA-09-2011-0013KMG Electronic Chemicals, Inc.Closed
12/01/2011FIFRA-09-2011-0002MGuard Coatings Technology, Inc.Closed
12/01/2011EPCRA-09-2011-0008Safeway, Inc.Closed
12/01/2011FIFRA-09-2011-0016Moore Agricultural ProductsClosed
12/01/2011CAA(112r)-09-2011-0014Fresh & Easy Neighborhood Markets IncClosed
12/01/2011CAA(112r)-09-2011-0021HP HoodClosed
12/01/2011RCRA-09-2011-0001U.S. Pre-Finished Metals CorpClosed
12/01/2011TSCA-09-2011-0002Rainbow Dreams Academy Charter SchoolClosed
12/01/2011CAA(112r)-09-2011-0018NGP Blue Mountain I LLCClosed
12/01/2011FIFRA-09-2011-0005Kinetic Solutions, Inc. dba Rabbit AirClosed
12/01/2011FIFRA-09-2011-0001Altawood, Inc.Closed
12/01/2011SPCC-09-2011-0008June Mountain Ski AreaClosed
12/01/2011CAA(112r)-09-2011-0007Baker CommoditiesClosed
12/01/2011FIFRA-09-2011-0013Apex Chemical CorporationClosed
12/01/2011CAA(112r)-09-2011-0010Hasa, Inc. (Pittsburg Facility)Closed
12/01/2011CAA(112r)-09-2011-0009Hasa, Inc. (Saugus Facility)Closed
12/01/2011FIFRA-09-2011-0015Skasol, Inc.Closed
12/01/2011CAA(112r)-09-2011-0006Red River Fresh ProduceClosed
12/01/2011SPCC-09-2011-0011Valley Pacific Petroleum Services, Inc.Closed
12/01/2011RCRA-09-2011-0007Hexcel CorporationClosed
12/01/2011CAA(112r)-09-2011-0022MCSD Wastewater Management FacilityClosed
12/01/2011SPCC-09-2011-0009Cal Trans - McGee Creek Maintenance FacilityClosed
12/01/2011TSCA-09-2011-0004Bailey Charter Elementary SchoolClosed
12/01/2011RCRA-09-2011-0008The Bumper BoyzClosed
12/01/2011FIFRA-09-2011-0003Tanner Flying Services, Inc.Closed
12/01/2011SPCC-09-2011-0001Big Island Energy, Inc.Closed
12/01/2011FIFRA-09-2011-0019Andrew M. Martin Co. NV, Inc.Closed
12/01/2011EPCRA-09-2011-0010Starco Enterprises, Inc.Closed
12/01/2011SPCC-09-2011-0002Natural Energy Laboratory of Hawaii AuthorityClosed
12/01/2011CAA(112r)-09-2011-0016Sunkist Growers - TiptonClosed
12/01/2011FIFRA-09-2011-0012Enviro Tech Chemical ServicesClosed
12/01/2011FIFRA-09-2011-0004Materia, Inc.Closed
12/01/2011TSCA-09-2011-0012Imagine School In The ValleClosed
12/01/2011SPCC-09-2011-0004Reno Drain Oil ServiceClosed
12/01/2011CAA(112r)-09-2011-0002Jacobson Distribution CompanyClosed
12/01/2011CAA(112r)-09-2011-0013Supervalu Holdings, Inc.Closed
12/01/2011CAA-02-2011-1210Infineum USA, LPClosed
12/01/2011CERCLA-08-2012-0002OPHIR MILLS AND SMELTER SITE - ATLANTIC RICHFIELD COMPANYActive
12/01/2011EPCRA-05-2012-0003Ozinga Bros., Inc., Ozinga Chicago RMC Inc., Ozinga IL RCM Mokena, Ozinga Ready-Mix Concrete - SEP - (Orland Park, Illinois)Closed
12/01/2011RCRA-03-2011-0197Estate of Roger G. Fussell, (RCRA), (SCAFO)Active
12/01/2011RCRA-03-2012-0027Andrea Simmons, Executrix, Highlander Village (SCAFO) (RCRA)Closed
12/01/2011SDWA-08-2012-0006WOODENSHOE PUBLIC WATER SYSTEMActive
11/30/2011CERCLA-08-2012-0001RAILROAD CORRIDOR OPERABLE UNIT 1 ACM SMELTER AND REFINERY SITE - BNSF RAILWAY COMPANYActive
11/30/2011CWA-04-2011-5016Continental Resources, Inc.Closed
11/30/2011CWA 06-2011-1728Petro General, Inc.Active
11/30/2011CWA 06-2011-1826CENTRAL NEW MEXICO CORRECTIONAL FACILITYClosed
11/30/2011CWA 06-2012-1747CITY OF AZTECActive
11/30/2011EPCRA-03-2012-0007Amerimax Home Products, Inc., EPCRA, (SCAFO)Active
11/30/2011EPCRA-04-2012-2001(b)Water-Way Inc.Closed
11/30/2011SDWA-04-2011-1015(b)Greenville Oil CompanyClosed
11/29/2011RCRA-09-2012-000321st Century Environmental Management of NV, LLCActive
11/29/2011TSCA-07-2012-0007Jerry Folkers Siding, Inc d/b/a Jerry Folkers Siding and WindowsActive
11/29/2011CWA-01-2012-0001Cos Cob StationClosed
11/29/2011TSCA-08-2012-0001CAPITAL GROWTH CORPORATIONClosed
11/28/2011CWA-07-2011-0098Shipley Contracting CorpClosed
11/28/2011RCRA-07-2011-0035My-T-MartClosed
11/28/2011RCRA-07-2011-0037Omaha Wilbert Vaults, IncClosed
11/28/2011RCRA-07-2011-0039Fantasy's Phillips 66Closed
11/24/2011RCRA-10-2012-0012BURLINGTON ENVIRONMENTAL, INC.Closed
11/23/2011EPCRA-10-2012-0027FRAZIER INDUSTRIAL COMPANYClosed
11/23/2011CWA-01-2011-0089Town of Rowley, MAClosed
11/23/2011CWA-06-2012-4305Harold LangleyActive
11/23/2011CWA 06-2012-4304Harold Langley, Grant Lease Tank BatteryActive
11/23/2011RCRA-07-2012-0002Eldo WRMS, IncClosed
11/22/2011CWA-04-2011-5020Allied Aviation ServicesClosed
11/22/2011CWA 06-2012-27023-D Development, LLCActive
11/22/2011FIFRA 06-2012-0305PPM Services, Inc.Active
11/21/2011CWA-07-2011-0075Ronald RocheClosed
11/21/2011EPCRA-05-2012-0002U-Line Corporation (Milwaukee, Wisconsin)Closed
11/21/2011RCRA-05-2012-0002Barrel Plating Services,Inc. - INSTALLMENTS - (Milwaukee, Wisconsin)Closed
11/21/2011SDWA-08-2012-0005GREATER SMOOT WATER AND SEWER DISTRICT, WYActive
11/21/2011TSCA-07-2011-0013Paul E BunyardClosed
11/21/2011TSCA-07-2012-0001Columbia Power and Light DepartmentActive
11/19/2011EPCRA-09-2011-0001Clorox Products Manufacturing CorpActive
11/19/2011EPCRA-09-2011-0019Precision Stamping, Inc.Active
11/19/2011CAA(112r)-09-2011-0001Clorox Products Manufacturing, Inc.Active
11/19/2011EPCRA-09-2011-0002Hafadai Beach HotelActive
11/19/2011EPCRA-09-2011-0020Huntsman CorporationActive
11/19/2011EPCRA-09-2011-0006Axsys Technologies, Inc.Active
11/19/2011EPCRA-09-2011-0003Rockwell Collins ElectroMechanical Systems, Inc.Active
11/18/2011EPCRA-09-2012-0001Philips Lumileds Lighting CompanyActive
11/18/2011CAA-09-2011-0006Aka Bains, Inc./Savidge Construction, Inc./BK BobcatActive
11/18/2011CAA-09-2011-0008Air Products Manufacturing CorpActive

(1601 entries in this collection)
[prev] 1 2 3 4 5 6 7 8 9 10 11 12 13 14 15 16 17 [next]

Local Navigation




Jump to main content.